Time,TemperatureF,DewpointF,PressureIn,WindDirection,WindDirectionDegrees,WindSpeedMPH,WindSpeedGustMPH,Humidity,HourlyPrecipIn,Conditions,Clouds,dailyrainin,SoftwareType,DateUTC
2013-08-11 00:01:00,71.2,67.1,30.09,NW,309,0.0,0.0,87,0.00,,---,0.00,VWS V14.01,2013-08-11 04:01:00,
2013-08-11 00:02:00,71.3,67.2,30.09,NW,309,0.0,0.0,87,0.00,,---,0.00,VWS V14.01,2013-08-11 04:02:00,
2013-08-11 00:03:00,71.3,67.2,30.09,NW,309,0.0,0.0,87,0.00,,---,0.00,VWS V14.01,2013-08-11 04:03:00,
2013-08-11 00:08:00,71.4,67.3,30.09,NW,309,0.0,0.0,87,0.00,,---,0.00,VWS V14.01,2013-08-11 04:08:00,
2013-08-11 00:14:00,71.6,67.5,30.09,NW,309,0.0,0.0,87,0.00,,---,0.00,VWS V14.01,2013-08-11 04:14:00,
2013-08-11 00:19:00,71.8,67.4,30.09,NW,309,0.0,0.0,86,0.00,,---,0.00,VWS V14.01,2013-08-11 04:19:00,
2013-08-11 00:24:00,72.1,67.7,30.09,NW,309,0.0,0.0,86,0.00,,---,0.00,VWS V14.01,2013-08-11 04:24:00,
2013-08-11 00:29:00,72.3,67.9,30.09,NW,309,0.0,0.0,86,0.00,,---,0.00,VWS V14.01,2013-08-11 04:29:00,
2013-08-11 00:34:00,72.4,68.0,30.09,NW,305,0.0,0.0,86,0.00,,---,0.00,VWS V14.01,2013-08-11 04:34:00,
2013-08-11 00:39:00,72.6,68.2,30.09,NW,305,0.0,0.0,86,0.00,,---,0.00,VWS V14.01,2013-08-11 04:39:00,
2013-08-11 00:44:00,72.7,68.3,30.09,NW,305,0.0,0.0,86,0.00,,---,0.00,VWS V14.01,2013-08-11 04:44:00,
2013-08-11 00:49:00,72.8,68.0,30.09,NW,305,0.0,0.0,85,0.00,,---,0.00,VWS V14.01,2013-08-11 04:49:00,
2013-08-11 00:54:00,72.8,68.0,30.09,NW,305,0.0,0.0,85,0.00,,---,0.00,VWS V14.01,2013-08-11 04:54:00,
2013-08-11 00:59:00,72.7,67.9,30.09,NW,305,0.0,0.0,85,0.00,,---,0.00,VWS V14.01,2013-08-11 04:59:00,
2013-08-11 01:04:00,72.7,67.9,30.08,NW,305,0.0,0.0,85,0.00,,---,0.00,VWS V14.01,2013-08-11 05:04:00,
2013-08-11 01:09:00,72.7,68.3,30.08,NW,305,0.0,0.0,86,0.00,,---,0.00,VWS V14.01,2013-08-11 05:09:00,
2013-08-11 01:15:00,72.6,68.2,30.08,NW,304,0.0,0.0,86,0.00,,---,0.00,VWS V14.01,2013-08-11 05:15:00,
2013-08-11 01:20:00,72.6,68.2,30.08,NW,305,0.0,0.0,86,0.00,,---,0.00,VWS V14.01,2013-08-11 05:20:00,
2013-08-11 01:25:00,72.5,68.1,30.08,NW,305,0.0,0.0,86,0.00,,---,0.00,VWS V14.01,2013-08-11 05:25:00,
2013-08-11 01:30:00,72.4,68.0,30.08,NW,305,0.0,0.0,86,0.00,,---,0.00,VWS V14.01,2013-08-11 05:30:00,
2013-08-11 01:36:00,72.3,67.9,30.08,NW,305,0.0,0.0,86,0.00,,---,0.00,VWS V14.01,2013-08-11 05:36:00,
2013-08-11 01:41:00,72.1,67.7,30.07,NW,305,0.0,0.0,86,0.00,,---,0.00,VWS V14.01,2013-08-11 05:41:00,
2013-08-11 01:46:00,72.0,67.9,30.07,NW,305,0.0,0.0,87,0.00,,---,0.00,VWS V14.01,2013-08-11 05:46:00,
2013-08-11 01:51:00,71.9,67.8,30.07,NW,305,0.0,0.0,87,0.00,,---,0.00,VWS V14.01,2013-08-11 05:51:00,
2013-08-11 01:56:00,71.9,67.8,30.08,NW,305,0.0,0.0,87,0.00,,---,0.00,VWS V14.01,2013-08-11 05:56:00,
2013-08-11 02:01:00,71.9,67.5,30.07,NW,305,0.0,0.0,86,0.00,,---,0.00,VWS V14.01,2013-08-11 06:01:00,
2013-08-11 02:06:00,71.9,67.5,30.07,West,261,0.0,1.0,86,0.00,,---,0.00,VWS V14.01,2013-08-11 06:06:00,
2013-08-11 02:11:00,71.9,67.5,30.07,West,262,0.0,1.0,86,0.00,,---,0.00,VWS V14.01,2013-08-11 06:11:00,
2013-08-11 02:17:00,71.8,67.4,30.07,West,261,0.0,1.0,86,0.00,,---,0.00,VWS V14.01,2013-08-11 06:17:00,
2013-08-11 02:22:00,71.8,67.4,30.07,West,262,0.0,1.0,86,0.00,,---,0.00,VWS V14.01,2013-08-11 06:22:00,
2013-08-11 02:27:00,71.7,67.3,30.07,West,262,0.0,1.0,86,0.00,,---,0.00,VWS V14.01,2013-08-11 06:27:00,
2013-08-11 02:33:00,71.7,67.3,30.07,West,261,0.0,0.0,86,0.00,,---,0.00,VWS V14.01,2013-08-11 06:33:00,
2013-08-11 02:38:00,71.6,67.2,30.07,West,261,0.0,0.0,86,0.00,,---,0.00,VWS V14.01,2013-08-11 06:38:00,
2013-08-11 02:43:00,71.6,67.2,30.07,West,261,0.0,0.0,86,0.00,,---,0.00,VWS V14.01,2013-08-11 06:43:00,
2013-08-11 02:48:00,71.6,67.2,30.07,West,261,0.0,0.0,86,0.00,,---,0.00,VWS V14.01,2013-08-11 06:48:00,
2013-08-11 02:54:00,71.6,67.2,30.07,West,262,0.0,0.0,86,0.00,,---,0.00,VWS V14.01,2013-08-11 06:54:00,
2013-08-11 02:59:00,71.5,67.1,30.07,West,261,0.0,0.0,86,0.00,,---,0.00,VWS V14.01,2013-08-11 06:59:00,
2013-08-11 03:04:00,71.5,67.1,30.07,West,261,0.0,0.0,86,0.00,,---,0.00,VWS V14.01,2013-08-11 07:04:00,
2013-08-11 03:10:00,71.4,67.3,30.08,West,261,0.0,0.0,87,0.00,,---,0.00,VWS V14.01,2013-08-11 07:10:00,
2013-08-11 03:15:00,71.4,67.3,30.07,West,262,0.0,0.0,87,0.00,,---,0.00,VWS V14.01,2013-08-11 07:15:00,
2013-08-11 03:20:00,71.5,67.4,30.07,West,262,0.0,0.0,87,0.00,,---,0.00,VWS V14.01,2013-08-11 07:20:00,
2013-08-11 03:25:00,71.5,67.8,30.07,West,262,0.0,0.0,88,0.00,,---,0.00,VWS V14.01,2013-08-11 07:25:00,
2013-08-11 03:30:00,71.5,67.8,30.07,West,262,0.0,0.0,88,0.00,,---,0.00,VWS V14.01,2013-08-11 07:30:00,
2013-08-11 03:36:00,71.4,67.7,30.07,West,262,0.0,0.0,88,0.00,,---,0.00,VWS V14.01,2013-08-11 07:36:00,
2013-08-11 03:41:00,71.4,67.7,30.07,West,261,0.0,0.0,88,0.00,,---,0.00,VWS V14.01,2013-08-11 07:41:00,
2013-08-11 03:46:00,71.3,67.6,30.07,West,262,0.0,0.0,88,0.00,,---,0.00,VWS V14.01,2013-08-11 07:46:00,
2013-08-11 03:51:00,71.2,67.5,30.07,West,261,0.0,0.0,88,0.00,,---,0.00,VWS V14.01,2013-08-11 07:51:00,
2013-08-11 03:56:00,71.2,67.8,30.08,West,262,0.0,0.0,89,0.00,,---,0.00,VWS V14.01,2013-08-11 07:56:00,
2013-08-11 04:01:00,71.3,67.9,30.08,West,262,0.0,0.0,89,0.00,,---,0.00,VWS V14.01,2013-08-11 08:01:00,
2013-08-11 04:07:00,71.3,67.9,30.08,West,261,0.0,0.0,89,0.00,,---,0.00,VWS V14.01,2013-08-11 08:07:00,
2013-08-11 04:13:00,71.3,67.9,30.08,West,262,0.0,0.0,89,0.00,,---,0.00,VWS V14.01,2013-08-11 08:13:00,
2013-08-11 04:18:00,71.3,67.9,30.08,West,261,0.0,0.0,89,0.00,,---,0.00,VWS V14.01,2013-08-11 08:18:00,
2013-08-11 04:23:00,71.3,67.9,30.08,West,261,0.0,0.0,89,0.00,,---,0.00,VWS V14.01,2013-08-11 08:23:00,
2013-08-11 04:28:00,71.3,67.9,30.08,West,262,0.0,0.0,89,0.00,,---,0.00,VWS V14.01,2013-08-11 08:28:00,
2013-08-11 04:34:00,71.3,67.9,30.08,West,262,0.0,0.0,89,0.00,,---,0.00,VWS V14.01,2013-08-11 08:34:00,
2013-08-11 04:39:00,71.3,67.9,30.08,West,261,0.0,0.0,89,0.00,,---,0.00,VWS V14.01,2013-08-11 08:39:00,
2013-08-11 04:44:00,71.4,68.0,30.08,West,262,0.0,0.0,89,0.00,,---,0.00,VWS V14.01,2013-08-11 08:44:00,
2013-08-11 04:49:00,71.3,67.9,30.08,West,262,0.0,0.0,89,0.00,,---,0.00,VWS V14.01,2013-08-11 08:49:00,
2013-08-11 04:54:00,71.3,67.9,30.08,West,261,0.0,0.0,89,0.00,,---,0.00,VWS V14.01,2013-08-11 08:54:00,
2013-08-11 04:59:00,71.4,68.0,30.09,West,262,0.0,0.0,89,0.00,,---,0.00,VWS V14.01,2013-08-11 08:59:00,
2013-08-11 05:05:00,71.5,68.1,30.09,West,261,0.0,0.0,89,0.00,,---,0.00,VWS V14.01,2013-08-11 09:05:00,
2013-08-11 05:10:00,71.5,68.1,30.09,West,262,0.0,0.0,89,0.00,,---,0.00,VWS V14.01,2013-08-11 09:10:00,
2013-08-11 05:15:00,71.5,68.1,30.09,West,262,0.0,0.0,89,0.00,,---,0.00,VWS V14.01,2013-08-11 09:15:00,
2013-08-11 05:20:00,71.6,68.2,30.09,West,262,0.0,0.0,89,0.00,,---,0.00,VWS V14.01,2013-08-11 09:20:00,
2013-08-11 05:26:00,71.5,68.1,30.09,West,262,0.0,0.0,89,0.00,,---,0.00,VWS V14.01,2013-08-11 09:26:00,
2013-08-11 05:31:00,71.5,68.1,30.09,West,262,0.0,0.0,89,0.00,,---,0.00,VWS V14.01,2013-08-11 09:31:00,
2013-08-11 05:36:00,71.5,68.1,30.08,West,262,0.0,0.0,89,0.00,,---,0.00,VWS V14.01,2013-08-11 09:36:00,
2013-08-11 05:42:00,71.5,68.1,30.09,West,262,0.0,0.0,89,0.00,,---,0.00,VWS V14.01,2013-08-11 09:42:00,
2013-08-11 05:47:00,71.4,68.0,30.09,West,262,0.0,0.0,89,0.00,,---,0.00,VWS V14.01,2013-08-11 09:47:00,
2013-08-11 05:52:00,71.5,68.4,30.09,West,262,0.0,0.0,90,0.00,,---,0.00,VWS V14.01,2013-08-11 09:52:00,
2013-08-11 05:58:00,71.5,68.4,30.09,West,262,0.0,0.0,90,0.00,,---,0.00,VWS V14.01,2013-08-11 09:58:00,
2013-08-11 06:03:00,71.5,68.4,30.09,West,261,0.0,0.0,90,0.00,,---,0.00,VWS V14.01,2013-08-11 10:03:00,
2013-08-11 06:08:00,71.5,68.4,30.09,West,262,0.0,0.0,90,0.00,,---,0.00,VWS V14.01,2013-08-11 10:08:00,
2013-08-11 06:13:00,71.5,68.4,30.09,West,262,0.0,0.0,90,0.00,,---,0.00,VWS V14.01,2013-08-11 10:13:00,
2013-08-11 06:19:00,71.5,68.4,30.10,West,262,0.0,0.0,90,0.00,,---,0.00,VWS V14.01,2013-08-11 10:19:00,
2013-08-11 06:24:00,71.4,68.3,30.10,West,261,0.0,0.0,90,0.00,,---,0.00,VWS V14.01,2013-08-11 10:24:00,
2013-08-11 06:29:00,71.4,68.3,30.10,West,261,0.0,0.0,90,0.00,,---,0.00,VWS V14.01,2013-08-11 10:29:00,
2013-08-11 06:34:00,71.4,68.3,30.10,West,262,0.0,0.0,90,0.00,,---,0.00,VWS V14.01,2013-08-11 10:34:00,
2013-08-11 06:40:00,71.4,68.6,30.10,West,262,0.0,0.0,91,0.00,,---,0.00,VWS V14.01,2013-08-11 10:40:00,
2013-08-11 06:45:00,71.4,68.6,30.10,West,262,0.0,0.0,91,0.00,,---,0.00,VWS V14.01,2013-08-11 10:45:00,
2013-08-11 06:50:00,71.4,68.6,30.10,West,262,0.0,0.0,91,0.00,,---,0.00,VWS V14.01,2013-08-11 10:50:00,
2013-08-11 06:55:00,71.5,68.7,30.10,West,262,0.0,0.0,91,0.00,,---,0.00,VWS V14.01,2013-08-11 10:55:00,
2013-08-11 07:01:00,71.5,68.7,30.10,West,262,0.0,0.0,91,0.00,,---,0.00,VWS V14.01,2013-08-11 11:01:00,
2013-08-11 07:06:00,71.6,68.8,30.10,West,261,0.0,0.0,91,0.00,,---,0.00,VWS V14.01,2013-08-11 11:06:00,
2013-08-11 07:11:00,71.7,68.9,30.11,West,261,0.0,0.0,91,0.00,,---,0.00,VWS V14.01,2013-08-11 11:11:00,
2013-08-11 07:16:00,71.7,68.6,30.11,West,262,0.0,0.0,90,0.00,,---,0.00,VWS V14.01,2013-08-11 11:16:00,
2013-08-11 07:21:00,71.7,68.9,30.11,West,261,0.0,0.0,91,0.00,,---,0.00,VWS V14.01,2013-08-11 11:21:00,
2013-08-11 07:26:00,71.8,69.0,30.11,West,261,0.0,0.0,91,0.00,,---,0.00,VWS V14.01,2013-08-11 11:26:00,
2013-08-11 07:31:00,71.8,69.0,30.11,West,261,0.0,0.0,91,0.00,,---,0.00,VWS V14.01,2013-08-11 11:31:00,
2013-08-11 07:36:00,71.9,69.1,30.11,West,261,0.0,0.0,91,0.00,,---,0.00,VWS V14.01,2013-08-11 11:36:00,
2013-08-11 07:42:00,72.0,69.2,30.11,West,261,0.0,0.0,91,0.00,,---,0.00,VWS V14.01,2013-08-11 11:42:00,
2013-08-11 07:47:00,72.0,69.2,30.11,West,262,0.0,0.0,91,0.00,,---,0.00,VWS V14.01,2013-08-11 11:47:00,
2013-08-11 07:52:00,72.0,69.2,30.11,West,262,0.0,0.0,91,0.00,,---,0.00,VWS V14.01,2013-08-11 11:52:00,
2013-08-11 07:57:00,72.1,69.3,30.11,West,262,0.0,0.0,91,0.00,,---,0.00,VWS V14.01,2013-08-11 11:57:00,
2013-08-11 08:02:00,72.2,69.4,30.11,West,261,0.0,0.0,91,0.00,,---,0.00,VWS V14.01,2013-08-11 12:02:00,
2013-08-11 08:07:00,72.3,69.5,30.12,West,262,0.0,0.0,91,0.00,,---,0.00,VWS V14.01,2013-08-11 12:07:00,
2013-08-11 08:12:00,72.4,69.3,30.12,West,261,0.0,0.0,90,0.00,,---,0.00,VWS V14.01,2013-08-11 12:12:00,
2013-08-11 08:17:00,72.5,69.4,30.12,West,261,0.0,0.0,90,0.00,,---,0.00,VWS V14.01,2013-08-11 12:17:00,
2013-08-11 08:23:00,72.8,69.7,30.12,West,262,0.0,0.0,90,0.00,,---,0.00,VWS V14.01,2013-08-11 12:23:00,
2013-08-11 08:28:00,73.2,69.8,30.12,West,262,0.0,0.0,89,0.00,,---,0.00,VWS V14.01,2013-08-11 12:28:00,
2013-08-11 08:33:00,73.7,70.3,30.12,West,262,0.0,0.0,89,0.00,,---,0.00,VWS V14.01,2013-08-11 12:33:00,
2013-08-11 08:38:00,74.1,70.0,30.12,West,261,0.0,0.0,87,0.00,,---,0.00,VWS V14.01,2013-08-11 12:38:00,
2013-08-11 08:43:00,74.6,70.5,30.12,West,261,0.0,1.0,87,0.00,,---,0.00,VWS V14.01,2013-08-11 12:43:00,
2013-08-11 08:48:00,74.9,70.4,30.12,West,262,0.0,1.0,86,0.00,,---,0.00,VWS V14.01,2013-08-11 12:48:00,
2013-08-11 08:53:00,75.2,70.4,30.12,West,264,1.0,1.0,85,0.00,,---,0.00,VWS V14.01,2013-08-11 12:53:00,
2013-08-11 08:58:00,75.5,70.7,30.12,SE,139,0.0,1.0,85,0.00,,---,0.00,VWS V14.01,2013-08-11 12:58:00,
2013-08-11 09:03:00,75.9,70.4,30.12,ESE,116,0.0,2.0,83,0.00,,---,0.00,VWS V14.01,2013-08-11 13:03:00,
2013-08-11 09:08:00,76.3,70.8,30.12,ESE,115,1.0,2.0,83,0.00,,---,0.00,VWS V14.01,2013-08-11 13:08:00,
2013-08-11 09:14:00,76.7,70.8,30.12,West,274,0.0,2.0,82,0.00,,---,0.00,VWS V14.01,2013-08-11 13:14:00,
2013-08-11 09:19:00,76.8,70.9,30.12,West,276,0.0,2.0,82,0.00,,---,0.00,VWS V14.01,2013-08-11 13:19:00,
2013-08-11 09:24:00,76.9,71.0,30.12,West,274,0.0,2.0,82,0.00,,---,0.00,VWS V14.01,2013-08-11 13:24:00,
2013-08-11 09:30:00,77.0,71.1,30.12,West,269,0.0,2.0,82,0.00,,---,0.00,VWS V14.01,2013-08-11 13:30:00,
2013-08-11 09:36:00,77.3,71.0,30.12,West,273,0.0,1.0,81,0.00,,---,0.00,VWS V14.01,2013-08-11 13:36:00,
2013-08-11 09:41:00,77.5,70.8,30.11,WNW,300,0.0,1.0,80,0.00,,---,0.00,VWS V14.01,2013-08-11 13:41:00,
2013-08-11 09:47:00,77.3,70.3,30.11,SW,233,0.0,1.0,79,0.00,,---,0.00,VWS V14.01,2013-08-11 13:47:00,
2013-08-11 09:52:00,77.5,70.8,30.11,North,352,0.0,1.0,80,0.00,,---,0.00,VWS V14.01,2013-08-11 13:52:00,
2013-08-11 09:57:00,77.8,70.8,30.11,NNW,346,0.0,1.0,79,0.00,,---,0.00,VWS V14.01,2013-08-11 13:57:00,
2013-08-11 10:02:00,77.9,70.9,30.11,West,274,0.0,0.0,79,0.00,,---,0.00,VWS V14.01,2013-08-11 14:02:00,
2013-08-11 10:08:00,78.1,71.1,30.11,West,268,0.0,1.0,79,0.00,,---,0.00,VWS V14.01,2013-08-11 14:08:00,
2013-08-11 10:13:00,78.5,71.4,30.11,WNW,284,0.0,1.0,79,0.00,,---,0.00,VWS V14.01,2013-08-11 14:13:00,
2013-08-11 10:18:00,78.8,71.0,30.11,West,270,0.0,1.0,77,0.00,,---,0.00,VWS V14.01,2013-08-11 14:18:00,
2013-08-11 10:23:00,78.7,70.1,30.11,West,270,0.0,1.0,75,0.00,,---,0.00,VWS V14.01,2013-08-11 14:23:00,
2013-08-11 10:29:00,79.0,70.8,30.12,West,270,0.0,1.0,76,0.00,,---,0.00,VWS V14.01,2013-08-11 14:29:00,
2013-08-11 10:34:00,79.4,70.8,30.12,West,270,0.0,0.0,75,0.00,,---,0.00,VWS V14.01,2013-08-11 14:34:00,
2013-08-11 10:39:00,79.7,70.3,30.12,West,271,0.0,1.0,73,0.00,,---,0.00,VWS V14.01,2013-08-11 14:39:00,
2013-08-11 10:44:00,80.1,71.5,30.12,WSW,251,0.0,1.0,75,0.00,,---,0.00,VWS V14.01,2013-08-11 14:44:00,
2013-08-11 10:49:00,80.5,70.2,30.12,WNW,285,2.0,2.0,71,0.00,,---,0.00,VWS V14.01,2013-08-11 14:49:00,
2013-08-11 10:54:00,80.7,70.8,30.12,WSW,238,0.0,2.0,72,0.00,,---,0.00,VWS V14.01,2013-08-11 14:54:00,
2013-08-11 10:59:00,80.8,69.7,30.12,WSW,245,1.0,3.0,69,0.00,,---,0.00,VWS V14.01,2013-08-11 14:59:00,
2013-08-11 11:04:00,80.7,69.6,30.12,West,272,0.0,2.0,69,0.00,,---,0.00,VWS V14.01,2013-08-11 15:04:00,
2013-08-11 11:10:00,80.8,69.7,30.12,NNW,340,0.0,2.0,69,0.00,,---,0.00,VWS V14.01,2013-08-11 15:10:00,
2013-08-11 11:15:00,81.2,68.8,30.11,WNW,284,0.0,2.0,66,0.00,,---,0.00,VWS V14.01,2013-08-11 15:15:00,
2013-08-11 11:20:00,81.0,68.6,30.12,West,260,0.0,2.0,66,0.00,,---,0.00,VWS V14.01,2013-08-11 15:20:00,
2013-08-11 11:26:00,81.0,68.6,30.11,WSW,253,0.0,2.0,66,0.00,,---,0.00,VWS V14.01,2013-08-11 15:26:00,
2013-08-11 11:31:00,81.2,68.8,30.11,NW,304,0.0,2.0,66,0.00,,---,0.00,VWS V14.01,2013-08-11 15:31:00,
2013-08-11 11:36:00,81.6,69.2,30.11,WNW,302,0.0,1.0,66,0.00,,---,0.00,VWS V14.01,2013-08-11 15:36:00,
2013-08-11 11:41:00,82.2,69.3,30.11,WNW,302,0.0,1.0,65,0.00,,---,0.00,VWS V14.01,2013-08-11 15:41:00,
2013-08-11 11:46:00,82.7,69.8,30.11,SSE,155,0.0,1.0,65,0.00,,---,0.00,VWS V14.01,2013-08-11 15:46:00,
2013-08-11 11:51:00,83.2,69.8,30.11,SSE,155,0.0,1.0,64,0.00,,---,0.00,VWS V14.01,2013-08-11 15:51:00,
2013-08-11 11:56:00,83.2,69.3,30.11,SSE,154,0.0,1.0,63,0.00,,---,0.00,VWS V14.01,2013-08-11 15:56:00,
2013-08-11 12:02:00,83.0,69.6,30.11,SSE,149,0.0,0.0,64,0.00,,---,0.00,VWS V14.01,2013-08-11 16:02:00,
2013-08-11 12:07:00,82.7,68.8,30.10,WSW,257,0.0,0.0,63,0.00,,---,0.00,VWS V14.01,2013-08-11 16:07:00,
2013-08-11 12:12:00,82.6,68.7,30.10,SSW,213,0.0,0.0,63,0.00,,---,0.00,VWS V14.01,2013-08-11 16:12:00,
2013-08-11 12:17:00,82.4,69.5,30.10,West,266,0.0,0.0,65,0.00,,---,0.00,VWS V14.01,2013-08-11 16:17:00,
2013-08-11 12:22:00,82.2,69.3,30.10,NNW,331,0.0,0.0,65,0.00,,---,0.00,VWS V14.01,2013-08-11 16:22:00,
2013-08-11 12:27:00,81.7,68.8,30.10,West,270,0.0,3.0,65,0.00,,---,0.00,VWS V14.01,2013-08-11 16:27:00,
2013-08-11 12:33:00,82.0,69.5,30.10,West,270,0.0,0.0,66,0.00,,---,0.00,VWS V14.01,2013-08-11 16:33:00,
2013-08-11 12:38:00,82.5,68.2,30.10,SSW,194,0.0,0.0,62,0.00,,---,0.00,VWS V14.01,2013-08-11 16:38:00,
2013-08-11 12:43:00,82.6,66.3,30.10,SSE,165,0.0,2.0,58,0.00,,---,0.00,VWS V14.01,2013-08-11 16:43:00,
2013-08-11 12:48:00,83.0,68.2,30.09,WNW,292,0.0,2.0,61,0.00,,---,0.00,VWS V14.01,2013-08-11 16:48:00,
2013-08-11 12:54:00,83.2,66.9,30.10,ENE,63,0.0,2.0,58,0.00,,---,0.00,VWS V14.01,2013-08-11 16:54:00,
2013-08-11 12:59:00,83.2,66.9,30.09,ESE,117,0.0,4.0,58,0.00,,---,0.00,VWS V14.01,2013-08-11 16:59:00,
2013-08-11 13:04:00,83.5,67.2,30.09,WNW,297,0.0,0.0,58,0.00,,---,0.00,VWS V14.01,2013-08-11 17:04:00,
2013-08-11 13:09:00,83.6,67.3,30.09,SSE,160,0.0,1.0,58,0.00,,---,0.00,VWS V14.01,2013-08-11 17:09:00,
2013-08-11 13:14:00,83.8,67.5,30.09,South,172,0.0,1.0,58,0.00,,---,0.00,VWS V14.01,2013-08-11 17:14:00,
2013-08-11 13:20:00,83.7,66.9,30.09,SE,131,2.0,3.0,57,0.00,,---,0.00,VWS V14.01,2013-08-11 17:20:00,
2013-08-11 13:25:00,83.3,66.0,30.09,SSE,160,0.0,3.0,56,0.00,,---,0.00,VWS V14.01,2013-08-11 17:25:00,
2013-08-11 13:30:00,83.3,66.5,30.09,SE,125,1.0,3.0,57,0.00,,---,0.00,VWS V14.01,2013-08-11 17:30:00,
2013-08-11 13:35:00,83.3,67.0,30.09,SE,131,0.0,0.0,58,0.00,,---,0.00,VWS V14.01,2013-08-11 17:35:00,
2013-08-11 13:40:00,83.8,68.4,30.09,West,276,1.0,1.0,60,0.00,,---,0.00,VWS V14.01,2013-08-11 17:40:00,
2013-08-11 13:45:00,83.7,66.9,30.09,South,169,1.0,3.0,57,0.00,,---,0.00,VWS V14.01,2013-08-11 17:45:00,
2013-08-11 13:50:00,83.5,66.7,30.09,ESE,107,1.0,3.0,57,0.00,,---,0.00,VWS V14.01,2013-08-11 17:50:00,
2013-08-11 13:55:00,83.2,67.9,30.09,SSW,200,2.0,4.0,60,0.00,,---,0.00,VWS V14.01,2013-08-11 17:55:00,
2013-08-11 14:01:00,82.6,66.8,30.09,West,276,2.0,4.0,59,0.00,,---,0.00,VWS V14.01,2013-08-11 18:01:00,
2013-08-11 14:06:00,82.0,67.2,30.09,WNW,299,0.0,2.0,61,0.00,,---,0.00,VWS V14.01,2013-08-11 18:06:00,
2013-08-11 14:11:00,82.0,67.2,30.08,WSW,245,0.0,2.0,61,0.00,,---,0.00,VWS V14.01,2013-08-11 18:11:00,
2013-08-11 14:16:00,82.2,68.4,30.08,WSW,243,0.0,2.0,63,0.00,,---,0.00,VWS V14.01,2013-08-11 18:16:00,
2013-08-11 14:21:00,83.0,68.7,30.08,SE,143,0.0,2.0,62,0.00,,---,0.00,VWS V14.01,2013-08-11 18:21:00,
2013-08-11 14:27:00,84.3,68.4,30.08,NNW,333,0.0,3.0,59,0.00,,---,0.00,VWS V14.01,2013-08-11 18:27:00,
2013-08-11 14:32:00,84.5,67.1,30.08,WSW,248,0.0,1.0,56,0.00,,---,0.00,VWS V14.01,2013-08-11 18:32:00,
2013-08-11 14:37:00,84.7,68.8,30.08,WSW,257,2.0,2.0,59,0.00,,---,0.00,VWS V14.01,2013-08-11 18:37:00,
2013-08-11 14:43:00,84.8,67.4,30.08,SW,228,0.0,3.0,56,0.00,,---,0.00,VWS V14.01,2013-08-11 18:43:00,
2013-08-11 14:48:00,84.5,66.1,30.08,SSW,211,2.0,7.0,54,0.00,,---,0.00,VWS V14.01,2013-08-11 18:48:00,
2013-08-11 14:53:00,83.9,66.0,30.07,WNW,292,1.0,7.0,55,0.00,,---,0.00,VWS V14.01,2013-08-11 18:53:00,
2013-08-11 14:59:00,84.0,67.7,30.07,West,281,1.0,7.0,58,0.00,,---,0.00,VWS V14.01,2013-08-11 18:59:00,
2013-08-11 15:04:00,83.8,66.4,30.06,WNW,302,0.0,4.0,56,0.00,,---,0.00,VWS V14.01,2013-08-11 19:04:00,
2013-08-11 15:09:00,84.2,68.8,30.06,WNW,284,0.0,4.0,60,0.00,,---,0.00,VWS V14.01,2013-08-11 19:09:00,
2013-08-11 15:14:00,84.9,69.5,30.06,ESE,104,0.0,4.0,60,0.00,,---,0.00,VWS V14.01,2013-08-11 19:14:00,
2013-08-11 15:19:00,85.5,68.0,30.06,WNW,297,0.0,4.0,56,0.00,,---,0.00,VWS V14.01,2013-08-11 19:19:00,
2013-08-11 15:24:00,85.7,68.7,30.06,WSW,248,0.0,4.0,57,0.00,,---,0.00,VWS V14.01,2013-08-11 19:24:00,
2013-08-11 15:29:00,86.0,68.0,30.06,ESE,115,0.0,4.0,55,0.00,,---,0.00,VWS V14.01,2013-08-11 19:29:00,
2013-08-11 15:34:00,85.9,68.9,30.06,SE,139,0.0,1.0,57,0.00,,---,0.00,VWS V14.01,2013-08-11 19:34:00,
2013-08-11 15:40:00,85.7,67.2,30.06,West,277,1.0,2.0,54,0.00,,---,0.00,VWS V14.01,2013-08-11 19:40:00,
2013-08-11 15:45:00,85.5,68.0,30.06,SW,215,0.0,2.0,56,0.00,,---,0.00,VWS V14.01,2013-08-11 19:45:00,
2013-08-11 15:50:00,85.3,67.3,30.06,East,84,0.0,4.0,55,0.00,,---,0.00,VWS V14.01,2013-08-11 19:50:00,
2013-08-11 15:55:00,84.8,65.2,30.06,NW,313,3.0,5.0,52,0.00,,---,0.00,VWS V14.01,2013-08-11 19:55:00,
2013-08-11 16:00:00,84.8,65.2,30.06,WSW,253,3.0,5.0,52,0.00,,---,0.00,VWS V14.01,2013-08-11 20:00:00,
2013-08-11 16:05:00,84.6,65.6,30.05,West,260,0.0,4.0,53,0.00,,---,0.00,VWS V14.01,2013-08-11 20:05:00,
2013-08-11 16:10:00,84.9,65.9,30.05,SE,135,0.0,4.0,53,0.00,,---,0.00,VWS V14.01,2013-08-11 20:10:00,
2013-08-11 16:15:00,85.4,66.3,30.05,SE,143,0.0,4.0,53,0.00,,---,0.00,VWS V14.01,2013-08-11 20:15:00,
2013-08-11 16:21:00,85.2,66.2,30.05,NW,311,0.0,4.0,53,0.00,,---,0.00,VWS V14.01,2013-08-11 20:21:00,
2013-08-11 16:26:00,85.3,66.2,30.05,West,270,0.0,4.0,53,0.00,,---,0.00,VWS V14.01,2013-08-11 20:26:00,
2013-08-11 16:31:00,85.4,66.3,30.05,SSE,158,1.0,4.0,53,0.00,,---,0.00,VWS V14.01,2013-08-11 20:31:00,
2013-08-11 16:36:00,85.8,67.8,30.05,SE,135,0.0,1.0,55,0.00,,---,0.00,VWS V14.01,2013-08-11 20:36:00,
2013-08-11 16:41:00,85.7,66.6,30.05,WNW,288,0.0,2.0,53,0.00,,---,0.00,VWS V14.01,2013-08-11 20:41:00,
2013-08-11 16:46:00,85.7,66.6,30.04,SSE,148,0.0,2.0,53,0.00,,---,0.00,VWS V14.01,2013-08-11 20:46:00,
2013-08-11 16:51:00,86.3,66.6,30.04,WNW,297,4.0,4.0,52,0.00,,---,0.00,VWS V14.01,2013-08-11 20:51:00,
2013-08-11 16:57:00,86.5,67.9,30.04,WSW,243,0.0,4.0,54,0.00,,---,0.00,VWS V14.01,2013-08-11 20:57:00,
2013-08-11 17:02:00,87.3,68.1,30.04,SSW,193,0.0,0.0,53,0.00,,---,0.00,VWS V14.01,2013-08-11 21:02:00,
2013-08-11 17:07:00,87.8,68.6,30.03,SSE,161,1.0,3.0,53,0.00,,---,0.00,VWS V14.01,2013-08-11 21:07:00,
2013-08-11 17:12:00,88.2,68.4,30.04,NNE,15,1.0,3.0,52,0.00,,---,0.00,VWS V14.01,2013-08-11 21:12:00,
2013-08-11 17:17:00,88.0,67.6,30.04,SSW,207,0.0,3.0,51,0.00,,---,0.00,VWS V14.01,2013-08-11 21:17:00,
2013-08-11 17:22:00,88.1,69.4,30.04,South,188,2.0,3.0,54,0.00,,---,0.00,VWS V14.01,2013-08-11 21:22:00,
2013-08-11 17:28:00,87.9,69.7,30.04,WNW,302,0.0,3.0,55,0.00,,---,0.00,VWS V14.01,2013-08-11 21:28:00,
2013-08-11 17:33:00,87.6,68.9,30.04,SSW,198,0.0,2.0,54,0.00,,---,0.00,VWS V14.01,2013-08-11 21:33:00,
2013-08-11 17:38:00,86.0,68.0,30.04,East,91,0.0,3.0,55,0.00,,---,0.00,VWS V14.01,2013-08-11 21:38:00,
2013-08-11 17:43:00,85.1,68.2,30.04,SSW,197,0.0,3.0,57,0.00,,---,0.00,VWS V14.01,2013-08-11 21:43:00,
2013-08-11 17:49:00,84.6,68.2,30.04,SSE,160,0.0,3.0,58,0.00,,---,0.00,VWS V14.01,2013-08-11 21:49:00,
2013-08-11 17:54:00,84.4,69.0,30.04,SW,222,0.0,3.0,60,0.00,,---,0.00,VWS V14.01,2013-08-11 21:54:00,
2013-08-11 17:59:00,83.9,68.1,30.04,SW,224,0.0,3.0,59,0.00,,---,0.00,VWS V14.01,2013-08-11 21:59:00,
2013-08-11 18:04:00,83.3,67.5,30.04,SW,218,0.0,1.0,59,0.00,,---,0.00,VWS V14.01,2013-08-11 22:04:00,
2013-08-11 18:10:00,83.0,67.2,30.03,SSE,148,0.0,2.0,59,0.00,,---,0.00,VWS V14.01,2013-08-11 22:10:00,
2013-08-11 18:15:00,82.9,67.1,30.03,SE,129,1.0,3.0,59,0.00,,---,0.00,VWS V14.01,2013-08-11 22:15:00,
2013-08-11 18:20:00,82.8,68.0,30.03,West,281,0.0,3.0,61,0.00,,---,0.00,VWS V14.01,2013-08-11 22:20:00,
2013-08-11 18:25:00,82.5,67.7,30.03,West,269,0.0,3.0,61,0.00,,---,0.00,VWS V14.01,2013-08-11 22:25:00,
2013-08-11 18:30:00,82.2,67.4,30.02,West,269,0.0,3.0,61,0.00,,---,0.00,VWS V14.01,2013-08-11 22:30:00,
2013-08-11 18:35:00,82.0,67.2,30.02,WNW,287,0.0,2.0,61,0.00,,---,0.00,VWS V14.01,2013-08-11 22:35:00,
2013-08-11 18:40:00,81.9,67.1,30.02,West,259,0.0,2.0,61,0.00,,---,0.00,VWS V14.01,2013-08-11 22:40:00,
2013-08-11 18:45:00,81.7,67.4,30.02,SE,129,0.0,4.0,62,0.00,,---,0.00,VWS V14.01,2013-08-11 22:45:00,
2013-08-11 18:51:00,81.5,67.2,30.02,SE,128,0.0,4.0,62,0.00,,---,0.00,VWS V14.01,2013-08-11 22:51:00,
2013-08-11 18:56:00,81.2,66.5,30.01,SE,133,0.0,4.0,61,0.00,,---,0.00,VWS V14.01,2013-08-11 22:56:00,
2013-08-11 19:01:00,80.7,66.5,30.01,SE,129,0.0,1.0,62,0.00,,---,0.00,VWS V14.01,2013-08-11 23:01:00,
2013-08-11 19:07:00,80.4,67.1,30.02,South,174,0.0,2.0,64,0.00,,---,0.00,VWS V14.01,2013-08-11 23:07:00,
2013-08-11 19:12:00,80.1,67.7,30.02,South,174,0.0,2.0,66,0.00,,---,0.00,VWS V14.01,2013-08-11 23:12:00,
2013-08-11 19:17:00,79.9,68.0,30.02,South,173,0.0,2.0,67,0.00,,---,0.00,VWS V14.01,2013-08-11 23:17:00,
2013-08-11 19:22:00,79.6,67.7,30.02,South,173,0.0,2.0,67,0.00,,---,0.00,VWS V14.01,2013-08-11 23:22:00,
2013-08-11 19:27:00,79.4,67.9,30.03,North,350,0.0,2.0,68,0.00,,---,0.00,VWS V14.01,2013-08-11 23:27:00,
2013-08-11 19:32:00,79.3,68.3,30.03,West,278,1.0,2.0,69,0.00,,---,0.00,VWS V14.01,2013-08-11 23:32:00,
2013-08-11 19:37:00,79.2,68.2,30.03,ESE,113,0.0,2.0,69,0.00,,---,0.00,VWS V14.01,2013-08-11 23:37:00,
2013-08-11 19:42:00,79.1,68.5,30.03,WSW,245,0.0,2.0,70,0.00,,---,0.00,VWS V14.01,2013-08-11 23:42:00,
2013-08-11 19:47:00,79.0,68.8,30.03,WNW,283,0.0,2.0,71,0.00,,---,0.00,VWS V14.01,2013-08-11 23:47:00,
2013-08-11 19:53:00,78.9,68.7,30.03,WSW,240,0.0,2.0,71,0.00,,---,0.00,VWS V14.01,2013-08-11 23:53:00,
2013-08-11 19:58:00,78.8,69.0,30.03,WSW,240,0.0,2.0,72,0.00,,---,0.00,VWS V14.01,2013-08-11 23:58:00,
2013-08-11 20:03:00,78.5,69.1,30.04,WSW,242,0.0,0.0,73,0.00,,---,0.00,VWS V14.01,2013-08-12 00:03:00,
2013-08-11 20:08:00,78.3,68.9,30.04,WSW,242,0.0,0.0,73,0.00,,---,0.00,VWS V14.01,2013-08-12 00:08:00,
2013-08-11 20:13:00,78.1,69.1,30.04,WSW,242,0.0,1.0,74,0.00,,---,0.00,VWS V14.01,2013-08-12 00:13:00,
2013-08-11 20:18:00,78.0,69.1,30.04,WSW,242,0.0,1.0,74,0.00,,---,0.00,VWS V14.01,2013-08-12 00:18:00,
2013-08-11 20:23:00,77.8,69.2,30.04,WSW,240,0.0,1.0,75,0.00,,---,0.00,VWS V14.01,2013-08-12 00:23:00,
2013-08-11 20:29:00,77.7,69.5,30.04,SSW,208,0.0,1.0,76,0.00,,---,0.00,VWS V14.01,2013-08-12 00:29:00,
2013-08-11 20:34:00,77.7,69.5,30.04,SSW,200,0.0,1.0,76,0.00,,---,0.00,VWS V14.01,2013-08-12 00:34:00,
2013-08-11 20:39:00,77.6,69.8,30.04,South,172,0.0,1.0,77,0.00,,---,0.00,VWS V14.01,2013-08-12 00:39:00,
2013-08-11 20:44:00,77.7,70.3,30.04,SSW,197,0.0,5.0,78,0.00,,---,0.00,VWS V14.01,2013-08-12 00:44:00,
2013-08-11 20:50:00,77.7,70.3,30.04,SE,145,0.0,5.0,78,0.00,,---,0.00,VWS V14.01,2013-08-12 00:50:00,
2013-08-11 20:55:00,77.7,70.3,30.04,West,270,0.0,5.0,78,0.00,,---,0.00,VWS V14.01,2013-08-12 00:55:00,
2013-08-11 21:00:00,77.7,70.3,30.04,WNW,287,0.0,5.0,78,0.00,,---,0.00,VWS V14.01,2013-08-12 01:00:00,
2013-08-11 21:05:00,77.6,70.6,30.04,ESE,111,0.0,2.0,79,0.00,,---,0.00,VWS V14.01,2013-08-12 01:05:00,
2013-08-11 21:10:00,77.5,70.5,30.05,ESE,107,0.0,2.0,79,0.00,,---,0.00,VWS V14.01,2013-08-12 01:10:00,
2013-08-11 21:15:00,77.4,70.4,30.05,East,94,0.0,2.0,79,0.00,,---,0.00,VWS V14.01,2013-08-12 01:15:00,
2013-08-11 21:21:00,77.4,70.4,30.05,East,101,0.0,2.0,79,0.00,,---,0.00,VWS V14.01,2013-08-12 01:21:00,
2013-08-11 21:26:00,77.2,70.2,30.05,ESE,115,0.0,2.0,79,0.00,,---,0.00,VWS V14.01,2013-08-12 01:26:00,
2013-08-11 21:31:00,77.1,70.1,30.05,ESE,115,0.0,2.0,79,0.00,,---,0.00,VWS V14.01,2013-08-12 01:31:00,
2013-08-11 21:36:00,76.9,69.9,30.05,ESE,116,0.0,1.0,79,0.00,,---,0.00,VWS V14.01,2013-08-12 01:36:00,
2013-08-11 21:41:00,76.8,69.8,30.05,SSE,148,0.0,1.0,79,0.00,,---,0.00,VWS V14.01,2013-08-12 01:41:00,
2013-08-11 21:46:00,76.7,69.7,30.05,SSE,148,0.0,1.0,79,0.00,,---,0.00,VWS V14.01,2013-08-12 01:46:00,
2013-08-11 21:51:00,76.5,69.5,30.05,SSE,148,0.0,1.0,79,0.00,,---,0.00,VWS V14.01,2013-08-12 01:51:00,
2013-08-11 21:56:00,76.3,69.3,30.05,SE,146,0.0,1.0,79,0.00,,---,0.00,VWS V14.01,2013-08-12 01:56:00,
2013-08-11 22:02:00,76.1,68.8,30.04,SE,139,0.0,0.0,78,0.00,,---,0.00,VWS V14.01,2013-08-12 02:02:00,
2013-08-11 22:07:00,75.9,68.2,30.05,SE,139,0.0,1.0,77,0.00,,---,0.00,VWS V14.01,2013-08-12 02:07:00,
2013-08-11 22:12:00,75.8,68.1,30.05,SE,139,0.0,1.0,77,0.00,,---,0.00,VWS V14.01,2013-08-12 02:12:00,
2013-08-11 22:17:00,75.7,68.0,30.05,SE,139,0.0,1.0,77,0.00,,---,0.00,VWS V14.01,2013-08-12 02:17:00,
2013-08-11 22:22:00,75.5,67.8,30.05,SE,139,0.0,1.0,77,0.00,,---,0.00,VWS V14.01,2013-08-12 02:22:00,
2013-08-11 22:27:00,75.4,67.7,30.04,SE,139,0.0,1.0,77,0.00,,---,0.00,VWS V14.01,2013-08-12 02:27:00,
2013-08-11 22:32:00,75.3,67.6,30.05,SE,140,0.0,0.0,77,0.00,,---,0.00,VWS V14.01,2013-08-12 02:32:00,
2013-08-11 22:38:00,75.1,67.8,30.05,SE,139,0.0,0.0,78,0.00,,---,0.00,VWS V14.01,2013-08-12 02:38:00,
2013-08-11 22:43:00,74.9,67.6,30.05,SE,139,0.0,0.0,78,0.00,,---,0.00,VWS V14.01,2013-08-12 02:43:00,
2013-08-11 22:48:00,74.8,67.5,30.05,SE,139,0.0,0.0,78,0.00,,---,0.00,VWS V14.01,2013-08-12 02:48:00,
2013-08-11 22:53:00,74.6,67.3,30.05,SE,139,0.0,0.0,78,0.00,,---,0.00,VWS V14.01,2013-08-12 02:53:00,
2013-08-11 22:58:00,74.5,67.6,30.05,SE,140,0.0,0.0,79,0.00,,---,0.00,VWS V14.01,2013-08-12 02:58:00,
2013-08-11 23:04:00,74.4,67.5,30.04,SE,140,0.0,0.0,79,0.00,,---,0.00,VWS V14.01,2013-08-12 03:04:00,
2013-08-11 23:09:00,74.2,67.6,30.04,SE,139,0.0,0.0,80,0.00,,---,0.00,VWS V14.01,2013-08-12 03:09:00,
2013-08-11 23:14:00,74.1,67.5,30.04,SE,139,0.0,0.0,80,0.00,,---,0.00,VWS V14.01,2013-08-12 03:14:00,
2013-08-11 23:19:00,74.0,67.4,30.04,SE,139,0.0,0.0,80,0.00,,---,0.00,VWS V14.01,2013-08-12 03:19:00,
2013-08-11 23:24:00,73.8,67.6,30.04,SE,140,0.0,0.0,81,0.00,,---,0.00,VWS V14.01,2013-08-12 03:24:00,
2013-08-11 23:29:00,73.7,67.5,30.04,SE,139,0.0,0.0,81,0.00,,---,0.00,VWS V14.01,2013-08-12 03:29:00,
2013-08-11 23:35:00,73.7,67.9,30.04,SE,140,0.0,0.0,82,0.00,,---,0.00,VWS V14.01,2013-08-12 03:35:00,
2013-08-11 23:40:00,73.5,67.7,30.04,SE,139,0.0,0.0,82,0.00,,---,0.00,VWS V14.01,2013-08-12 03:40:00,
2013-08-11 23:46:00,73.2,67.4,30.04,SE,139,0.0,0.0,82,0.00,,---,0.00,VWS V14.01,2013-08-12 03:46:00,
2013-08-11 23:51:00,73.0,67.5,30.04,SE,140,0.0,0.0,83,0.00,,---,0.00,VWS V14.01,2013-08-12 03:51:00,
2013-08-11 23:56:00,72.9,67.8,30.04,SE,139,0.0,0.0,84,0.00,,---,0.00,VWS V14.01,2013-08-12 03:56:00,